User: anonymous
Location: Fiddletown
(38.4917°N, 120.6633°W)
Time: 10:24:21
(UTC-07:00)
Language:

Envisat - Orbit

View from above orbital plane
View from above orbital plane
View from above satellite
View from above satellite

Ground track
Ground track

The orbit data is extracted from the following two-line orbital elements,

1 27386U 02009A   14114.34567615  .00000363  00000-0  12075-3 0   626
2 27386 098.3868 180.9938 0001309 107.8051 252.3760 14.37703580635808
Epoch (UTC): 24 April 2014 08:17:46
Eccentricity: 0.0001309
inclination: 98.3868°
perigee height: 765 km
apogee height: 767 km
right ascension of ascending node: 180.9938°
argument of perigee: 107.8051°
revolutions per day: 14.37703580
mean anomaly at epoch: 252.3760°
orbit number at epoch: 63580

The dashed part of the orbit path shows where the satellite is in the earth's shadow,  

DLR